Preview of NWS' New Version of Forecast
This preview is not operational and should not be used for support decisions.

Regional Weather Roundup (RWR)

Issued by National Weather Service (NWS)

                            
000
ASUS44 KJAN 191910
RWRMS 

MISSISSIPPI HOURLY WEATHER ROUNDUP
NATIONAL WEATHER SERVICE JACKSON MS
200 PM CDT FRI APR 19 2019

NOTE: "FAIR: INDICATES FEW OR NO CLOUDS BELOW 12,000 FEET WITH NO
SIGNIFICANT WEATHER AND/OR OBSTRUCTIONS TO VISIBILITY.

MSZ001>002-007>008-010>013-018>021-025>028-034>036-192000-
NORTHWEST MISSISSIPPI
  
CITY           SKY/WX    TMP DP  RH WIND       PRES   REMARKS
BATESVILLE     CLOUDY    52  43  71 NW14G22   29.78R                  
CLARKSDALE     PTSUNNY   54  46  76 NW17      29.81S                  
CLEVELAND      LGT RAIN  50  46  86 N18G31    29.83R                  
GREENWOOD      CLOUDY    51  46  83 N9G21     29.80R                  
GREENVILLE     CLOUDY    56  42  59 NW22G30   29.82F                  
OLIVE BRANCH   LGT RAIN  45  45 100 NW16G28   29.77R                  
OXFORD         DRIZZLE   50  43  76 NW14G22   29.77S                  
TUNICA           N/A     50  41  71 NW12G22   29.80S                  
WINONA         LGT RAIN  49  46  88 W6        29.79S                  
$$

MSZ003>006-009-014>017-022>024-029>033-037>039-192000-
NORTHEAST MISSISSIPPI
  
CITY           SKY/WX    TMP DP  RH WIND       PRES   REMARKS
ABERDEEN       LGT RAIN  48  48 100 W9G16     29.72R                  
COLUMBUS AFB   LGT RAIN  50  46  87 W18       29.71R                  
CORINTH        RAIN      48  45  87 NW13G20   29.68R                  
GOLDN TRIANGLE LGT RAIN  50  46  87 NW14G23   29.73S                  
STARKVILLE     CLOUDY    48  45  87 NW8       29.75S                  
TUPELO         LGT RAIN  50  44  80 NW14G22   29.70S                  
$$

MSZ040-058-192000-
CENTRAL MISSISSIPPI
  
CITY           SKY/WX    TMP DP  RH WIND       PRES   REMARKS
JACKSON INTL   PTSUNNY   60  45  57 NW14G23   29.80S                  
JACKSON HAWKNS CLOUDY    57  51  80 NW12      29.81S                  
MADISON        FAIR      55  43  62 NW17G28   29.80S                  
MERIDIAN KEY   CLOUDY    52  46  80 NW9G18    29.77R HAZE             
MERIDIAN NAS   CLOUDY    54  48  80 NW17G30   29.76R                  
RAYMOND        DRIZZLE   55  46  71 NW13G20   29.82R                  
VICKSBURG VKS  PTCLDY    57  46  67 NW15      29.85R                  
$$

MSZ059>079-192000-
SOUTH MISSISSIPPI
  
CITY           SKY/WX    TMP DP  RH WIND       PRES   REMARKS
HATTIESBURG    PTSUNNY   63  45  51 NW20      29.79S                  
LAUREL         CLOUDY    60  45  57 NW16G29   29.77F                  
MCCOMB         HVY RAIN  52  45  77 N13G33    29.83F                  
NATCHEZ        PTSUNNY   62  43  49 NW20G26   29.85F                  
PINE BELT      LGT RAIN  59  46  62 NW14G29   29.80S                  
$$

MSZ080>082-192000-
COASTAL MISSISSIPPI
  
CITY           SKY/WX    TMP DP  RH WIND       PRES   REMARKS
BAY ST LOUIS   PTSUNNY   64  43  45 NW17G24   29.81S                  
BILOXI         CLOUDY    67  43  41 NW21G32   29.78F                  
PASCAGOULA     PTSUNNY   66  42  41 NW7G22    29.77F                  
GULFPORT       PTSUNNY   67  44  43 W23G30    29.78F                  
$$

LAZ007>009-015>016-023>026-192000-
NORTHEAST LOUISIANA
  
CITY           SKY/WX    TMP DP  RH WIND       PRES   REMARKS
BASTROP        LGT RAIN  54  49  85 W8G22     29.87F                  
TALLULAH/VBURG LGT RAIN  55  45  68 NW9G29    29.85R                  
VIDALIA        MOCLDY    62  47  57 W14       29.85F                  
$$